Tracking 31027 objects as of 19-Jul-2025
HD Live streaming from Space Station
objects crossing your sky now

STARLINK-31582

Track STARLINK-31582 now!
10-day predictions
STARLINK-31582 is classified as:


NORAD ID: 59545
Int'l Code: 2024-074M
Perigee: 489.3 km
Apogee: 491.0 km
Inclination: 43.0 °
Period: 94.3 minutes
Semi major axis: 6861 km
RCS: Unknown
Launch date: April 18, 2024
Source: United States (US)
Launch site: AIR FORCE EASTERN TEST RANGE (AFETR)
Your satellite tracking list
NOAA 16 DEB
Track 1 satellite(s)




NASA's NSSDC Master Catalog

Two Line Element Set (TLE):
1 59545U 24074M   25199.75647316  .00000005  00000-0  97217-5 0  9996
2 59545  43.0003 224.9649 0001235 274.5542  85.5168 15.27577506 70236
Source of the keplerian elements: AFSPC